[[{"header":{"parameterUnit":"m.s-1","parameterCategory":1,"la1":30.2991,"la2":30.254,"lo1":-89.0895,"lo2":-89.0444,"dy":0.0017,"dx":0.0017,"nx":28,"ny":28,"refTime":"2024-07-10T21:00:00:Z","depth":0,"parameterNumber":2,"parameterNumberName":"U-component_of_WINDS"},"data":[0,0,0,0,0,0,0,0,0,0,0,0,0,0,0,0,0,0,0,0,0,0,0,0,0,0,0,0,0,0,0,0,0,0,0,0,0,0,0,0,0,0,0,0,0,0,0,0,0,0,0,0,0,0,0,0,0,0,-0.0198,-0.0198,0,-0.0136,-0.0136,-0.0135,-0.0144,-0.0145,-0.0146,-0.0147,-0.0081,-0.0079,-0.0076,0,0,0,0,0,0,0,0,0,0,0,0,0,-0.0324,-0.0322,-0.0198,-0.0198,-0.0197,-0.0137,-0.0136,-0.0135,-0.0144,-0.0145,-0.0146,-0.0147,-0.0082,-0.0079,-0.0076,0,0,0,0,0,0,0,0,0,0,0,0,0,-0.0266,-0.0321,-0.0199,-0.0194,-0.0193,-0.0137,-0.0136,-0.0135,-0.0143,-0.0145,-0.0146,-0.0148,-0.0083,-0.0079,-0.0075,-0.0019,0,0,-0.0063,-0.0061,0,0,0,0,0,0,0,0,-0.027,-0.0262,-0.0196,-0.0194,-0.0193,-0.015,-0.0156,-0.0096,-0.0143,-0.0162,-0.0147,-0.0149,-0.0103,-0.0097,-0.0082,-0.0016,-0.0013,-0.0062,-0.006,-0.0058,-0.0057,0,0,0,0,0,0,0,-0.0274,-0.0265,-0.0174,-0.0195,-0.0193,-0.0195,-0.0189,-0.0145,-0.0124,-0.0161,-0.0161,-0.0154,-0.0102,-0.0086,-0.008,-0.0012,-0.0063,-0.0059,-0.0056,-0.0055,0.0102,0.0104,0,0,0,0,0,0,-0.0279,-0.0268,-0.0176,-0.0172,-0.0236,-0.0192,-0.0184,-0.0162,-0.0125,-0.0121,-0.0152,-0.0154,-0.0092,-0.0085,-0.0078,-0.001,-0.0058,-0.0054,-0.0052,0.01,0.0102,0.0104,0,0,0,0,0,0,-0.0282,-0.0271,-0.0178,-0.022,-0.0208,-0.0188,-0.0162,-0.016,-0.0143,-0.0119,-0.0115,-0.0139,-0.0093,-0.0084,-0.0034,-0.0008,-0.0053,-0.0049,0.0098,0.0101,0.0103,0.0127,0,0,0,0,0,0,-0.0285,-0.0272,-0.025,-0.022,-0.0206,-0.0135,-0.0161,-0.0157,-0.0137,-0.0138,-0.0105,-0.0101,-0.0093,-0.004,-0.003,-0.0003,-0.0046,0.0096,0.0099,0.0103,0.0124,0.013,0.0135,0,0,0,0,0,-0.029,-0.0245,-0.0249,-0.0238,-0.0179,-0.0134,-0.0126,-0.0118,-0.0134,-0.0112,-0.0097,-0.0102,-0.0013,-0.0035,-0.0023,0.0005,0.0095,0.0099,0.0102,0.0121,0.0129,0.0135,0,0,0,0,0,0,-0.0271,-0.0241,-0.0245,-0.0189,-0.0164,-0.0135,-0.0107,-0.011,-0.008,-0.0083,-0.0074,-0.0066,-0.0016,-0.0001,-0.0026,0.0061,0.0039,0.0045,0.0049,0.0056,0.0062,0.0058,-0.0042,0,0,0,0,0,-0.0261,-0.0228,-0.0203,-0.0156,-0.0143,-0.0127,-0.0107,-0.0104,-0.0077,-0.0067,-0.0047,-0.0021,0.0013,0.0035,0.0068,0.0125,0.0132,0.015,0.0156,0.016,0.0166,0.0196,0.0204,0.0117,0.0117,0.0117,0,0,-0.0239,-0.0218,-0.0197,-0.0151,-0.0132,-0.0097,-0.0118,-0.008,-0.0054,-0.0061,-0.0012,0.0002,0.0032,0.0085,0.011,0.01,0.0191,0.0165,0.0168,0.0172,0.0201,0.0209,0.0217,0.012,0.0119,0.0119,0,0,-0.018,-0.0161,-0.0121,-0.0101,-0.0072,-0.0062,-0.0052,-0.0024,-0.0014,0.0034,0.0029,0.006,0.0118,0.0139,0.0158,0.0221,0.0217,0.0231,0.0261,0.029,0.0297,0.0303,0.0326,0.0334,0.0236,0.0236,0.0237,0,-0.0156,-0.0104,-0.0099,-0.0061,-0.0041,-0.0047,-0.0006,0.0013,0.0052,0.0066,0.0053,0.0125,0.0145,0.0203,0.0218,0.0233,0.0244,0.0228,0.0296,0.0302,0.0308,0.0329,0.0338,0.0238,0.0238,0.0238,0.0238,0,-0.0076,-0.004,-0.0011,0.0025,0.0048,0.0088,0.0099,0.0121,0.0122,0.0133,0.0181,0.0204,0.024,0.0254,0.0256,0.0312,0.0304,0.0294,0.0272,0.0318,0.0338,0.0346,0.024,0.024,0.0239,0.0239,0,0,-0.0001,0.0035,0.0046,0.0062,0.0092,0.012,0.0158,0.0193,0.0212,0.0238,0.0271,0.0319,0.0309,0.0329,0.0333,0.0358,0.0406,0.0344,0.0345,0.0355,0.0469,0.0477,0.0487,0.0403,0.0404,0.0406,0.0466,0,0.006,0.0128,0.0132,0.0194,0.0226,0.022,0.0253,0.0275,0.0286,0.0315,0.0326,0.036,0.0344,0.0356,0.0381,0.0395,0.0429,0.0391,0.0433,0.0435,0.0427,0.0497,0.0507,0.0563,0.0474,0.0475,0.0476,0,0.0142,0.0169,0.0233,0.0258,0.0271,0.0301,0.0333,0.036,0.0385,0.0391,0.0412,0.0411,0.045,0.0426,0.0479,0.0453,0.047,0.0479,0.0481,0.0487,0.0459,0.0505,0.0581,0.059,0.0489,0.0488,0.0487,0,0.019,0.0243,0.0287,0.0301,0.0331,0.0352,0.0365,0.0388,0.0408,0.0434,0.0447,0.0479,0.0496,0.052,0.0528,0.0509,0.0581,0.0557,0.0587,0.0586,0.0603,0.0602,0.0684,0.0613,0.0613,0.0613,0.0613,0,0.0259,0.0299,0.0309,0.0337,0.0381,0.0385,0.0428,0.044,0.046,0.0489,0.0485,0.0513,0.0521,0.055,0.0556,0.0598,0.0606,0.0612,0.0613,0.0613,0.0612,0.0625,0.0622,0.0615,0.0614,0.0614,0.0614,0,0.0322,0.033,0.0378,0.0401,0.0408,0.0439,0.0459,0.0485,0.0493,0.0531,0.054,0.0554,0.0588,0.0597,0.0638,0.0641,0.0692,0.0689,0.0684,0.0684,0.0713,0.071,0.0807,0.0819,0.0739,0.074,0.0741,0,0.0366,0.0396,0.0421,0.044,0.0454,0.0485,0.0504,0.0509,0.0529,0.0558,0.0581,0.0614,0.064,0.0694,0.0708,0.0739,0.0737,0.0769,0.0742,0.074,0.0738,0.0736,0.0739,0.0775,0.0775,0.0776,0.0777,0,0.0443,0.0445,0.0473,0.0503,0.0526,0.0549,0.0572,0.0587,0.0595,0.0618,0.0652,0.0672,0.0712,0.0745,0.0775,0.0789,0.0784,0.0784,0.0793,0.0794,0.0789,0.0792,0.0698,0.0783,0.0782,0.0782,0.0781,0.0781,0.0498,0.0524,0.0545,0.0576,0.0593,0.0613,0.0639,0.0649,0.0678,0.071,0.0711,0.0748,0.0769,0.0809,0.0824,0.0853,0.0843,0.0856,0.0859,0.0862,0.0864,0.0783,0.0858,0.0858,0.0858,0.0858,0.0857,0,0.0576,0.0588,0.0616,0.0647,0.0671,0.0662,0.0686,0.0707,0.0739,0.0759,0.0785,0.0823,0.0854,0.0868,0.0899,0.0919,0.0917,0.0927,0.0926,0.0929,0.0871,0.0861,0.0927,0.0927,0.0927,0.0927,0.0927,0.0927,0.0619,0.0662,0.0666,0.0716,0.0729,0.0764,0.0778,0.0796,0.0812,0.0855,0.088,0.0889,0.0907,0.0938,0.0965,0.0969,0.098,0.0991,0.0993,0.094,0.0933,0.0926,0.0917,0.0993,0.0993,0.1048,0.1049,0.1049]},{"header":{"parameterUnit":"m.s-1","parameterCategory":1,"la1":30.2991,"la2":30.254,"lo1":-89.0895,"lo2":-89.0444,"dy":0.0017,"dx":0.0017,"nx":28,"ny":28,"refTime":"2024-07-10T21:00:00:Z","depth":0,"parameterNumber":3,"parameterNumberName":"V-component_of_WINDS"},"data":[0,0,0,0,0,0,0,0,0,0,0,0,0,0,0,0,0,0,0,0,0,0,0,0,0,0,0,0,0,0,0,0,0,0,0,0,0,0,0,0,0,0,0,0,0,0,0,0,0,0,0,0,0,0,0,0,0,0,1.6607,1.6607,0,1.659,1.6589,1.6589,1.6596,1.6596,1.6596,1.6597,1.6577,1.6576,1.6575,0,0,0,0,0,0,0,0,0,0,0,0,0,1.6644,1.6643,1.6607,1.6607,1.6607,1.659,1.6589,1.6589,1.6596,1.6596,1.6597,1.6597,1.6577,1.6576,1.6575,0,0,0,0,0,0,0,0,0,0,0,0,0,1.6627,1.6643,1.6607,1.6608,1.6608,1.659,1.6589,1.6589,1.6596,1.6596,1.6597,1.6597,1.6578,1.6576,1.6575,1.6554,0,0,1.6571,1.657,0,0,0,0,0,0,0,0,1.6628,1.6626,1.6608,1.6608,1.6608,1.6596,1.6595,1.6577,1.6595,1.66,1.6597,1.6598,1.6582,1.6581,1.6576,1.6553,1.6552,1.6571,1.657,1.6569,1.6569,0,0,0,0,0,0,0,1.6629,1.6627,1.66,1.6608,1.6608,1.6608,1.6607,1.6592,1.6588,1.66,1.66,1.6598,1.6582,1.6577,1.6576,1.6552,1.6571,1.6569,1.6569,1.6568,1.6509,1.6508,0,0,0,0,0,0,1.6631,1.6628,1.6601,1.66,1.662,1.6607,1.6605,1.6599,1.6588,1.6587,1.6598,1.6599,1.6579,1.6577,1.6575,1.6548,1.6569,1.6568,1.6567,1.6509,1.6509,1.6508,0,0,0,0,0,0,1.6632,1.6628,1.6602,1.6614,1.661,1.6606,1.6599,1.6598,1.6593,1.6587,1.6586,1.6593,1.658,1.6577,1.6559,1.6547,1.6567,1.6566,1.651,1.6509,1.6508,1.6495,0,0,0,0,0,0,1.6633,1.6629,1.6622,1.6614,1.661,1.6587,1.6598,1.6597,1.6591,1.6592,1.6582,1.6581,1.658,1.6561,1.6557,1.6546,1.6565,1.6511,1.651,1.6508,1.6497,1.6494,1.6491,0,0,0,0,0,1.6634,1.6619,1.6621,1.6618,1.6601,1.6586,1.6584,1.6583,1.659,1.6582,1.6578,1.6582,1.655,1.6559,1.6555,1.6543,1.6512,1.651,1.6509,1.6498,1.6494,1.6491,0,0,0,0,0,0,1.6625,1.6618,1.662,1.6602,1.6595,1.6587,1.6577,1.658,1.657,1.6571,1.657,1.6568,1.6549,1.6544,1.6555,1.6521,1.6532,1.6529,1.6525,1.6521,1.6519,1.6519,1.6564,0,0,0,0,0,1.6622,1.6611,1.6605,1.6589,1.6585,1.6582,1.6576,1.6576,1.6567,1.6564,1.6559,1.655,1.6537,1.6529,1.6518,1.6496,1.6493,1.6486,1.6483,1.6481,1.6478,1.6464,1.646,1.6502,1.6502,1.6502,0,0,1.6613,1.6608,1.6601,1.6587,1.6582,1.6569,1.6579,1.6566,1.6557,1.6562,1.6544,1.654,1.653,1.6509,1.65,1.6505,1.6466,1.6479,1.6477,1.6476,1.6462,1.6458,1.6454,1.6501,1.6501,1.6501,0,0,1.6591,1.6587,1.6573,1.6566,1.6557,1.6555,1.6551,1.6543,1.654,1.6522,1.6525,1.6514,1.6493,1.6485,1.6478,1.6452,1.6454,1.6448,1.6434,1.642,1.6416,1.6413,1.6401,1.6397,1.6446,1.6446,1.6446,0,1.6582,1.6564,1.6565,1.6551,1.6544,1.6549,1.6533,1.6527,1.6514,1.6508,1.6514,1.6487,1.6481,1.6457,1.6451,1.6446,1.644,1.6449,1.6417,1.6414,1.6411,1.6399,1.6395,1.6445,1.6445,1.6445,1.6445,0,1.6552,1.6539,1.6529,1.6516,1.6508,1.6494,1.6491,1.6482,1.6483,1.6479,1.646,1.6452,1.6438,1.6433,1.6434,1.6409,1.6412,1.6417,1.6427,1.6406,1.6395,1.6391,1.6444,1.6444,1.6444,1.6444,0,0,1.6524,1.6511,1.6507,1.6501,1.649,1.648,1.6465,1.6451,1.6443,1.6434,1.642,1.6401,1.6406,1.6398,1.6398,1.6386,1.6362,1.6393,1.6392,1.6385,1.6331,1.6325,1.632,1.6364,1.6363,1.6363,1.6331,0,1.65,1.6474,1.6473,1.6448,1.6435,1.6439,1.6425,1.6417,1.6413,1.64,1.6396,1.6382,1.639,1.6385,1.6373,1.6367,1.6351,1.637,1.6348,1.6348,1.6349,1.6315,1.6309,1.6279,1.6327,1.6326,1.6325,0,1.6468,1.6457,1.6431,1.6421,1.6415,1.6403,1.639,1.6379,1.6368,1.6366,1.6356,1.6357,1.634,1.6351,1.6326,1.6339,1.633,1.6326,1.6325,1.6321,1.6334,1.6308,1.627,1.6264,1.6319,1.632,1.632,0,1.6448,1.6427,1.6408,1.6403,1.6391,1.6381,1.6376,1.6366,1.6357,1.6345,1.6339,1.6325,1.6317,1.6305,1.6301,1.6311,1.6275,1.6287,1.627,1.627,1.6261,1.6262,1.6219,1.6259,1.626,1.626,1.626,0,1.6419,1.6403,1.6398,1.6387,1.6367,1.6366,1.6347,1.6342,1.6332,1.6318,1.6321,1.6307,1.6304,1.629,1.6287,1.6265,1.6262,1.6258,1.6257,1.6256,1.6256,1.6249,1.625,1.6258,1.6259,1.6259,1.6259,0,1.6393,1.639,1.6369,1.6359,1.6356,1.6342,1.6332,1.632,1.6316,1.6298,1.6294,1.6287,1.627,1.6265,1.6245,1.6242,1.6215,1.6218,1.6219,1.6218,1.6201,1.6201,1.615,1.6142,1.619,1.619,1.6189,0,1.6374,1.6361,1.6349,1.634,1.6334,1.632,1.631,1.6308,1.6298,1.6284,1.6273,1.6256,1.6242,1.6214,1.6206,1.619,1.619,1.6174,1.6188,1.6187,1.6187,1.6187,1.6184,1.617,1.617,1.6169,1.6169,0,1.6341,1.6339,1.6326,1.6312,1.63,1.6289,1.6278,1.627,1.6266,1.6254,1.6237,1.6226,1.6204,1.6186,1.617,1.6162,1.6164,1.6165,1.6159,1.6158,1.6158,1.6155,1.6209,1.6165,1.6166,1.6166,1.6166,1.6166,1.6316,1.6303,1.6293,1.6277,1.6269,1.6258,1.6245,1.6239,1.6224,1.6207,1.6206,1.6186,1.6174,1.6151,1.6143,1.6126,1.6131,1.6124,1.6122,1.6119,1.6116,1.6162,1.6123,1.6123,1.6123,1.6123,1.6123,0,1.628,1.6273,1.6259,1.6243,1.623,1.6234,1.6221,1.621,1.6192,1.6181,1.6167,1.6145,1.6127,1.6118,1.61,1.6088,1.6088,1.6083,1.6082,1.608,1.6115,1.612,1.6083,1.6083,1.6083,1.6083,1.6083,1.6083,1.626,1.6239,1.6235,1.6209,1.6202,1.6182,1.6174,1.6163,1.6154,1.6129,1.6115,1.6109,1.6097,1.6078,1.6061,1.6058,1.605,1.6044,1.6042,1.6074,1.6078,1.6082,1.6087,1.6043,1.6043,1.6008,1.6008,1.6008]}]]